Previsão horária em Allmend

Hoje, 14 Junho, Segunda-feira

Tempo Temperatura Precipitação Vento Pressão Humidade
00:00 +14°C° 0 mm 1 m/s 686 mmHg 87%
01:00 +13°C° 0 mm 1 m/s 686 mmHg 86%
02:00 +13°C° 0 mm 1 m/s 685 mmHg 86%
03:00 +13°C° 0 mm 1 m/s 685 mmHg 85%
04:00 +13°C° 0 mm 1 m/s 685 mmHg 85%
05:00 +14°C° 0 mm 1 m/s 685 mmHg 80%
06:00 +16°C° 0 mm 1 m/s 686 mmHg 76%
07:00 +16°C° 0 mm 0 m/s 686 mmHg 72%
08:00 +20°C° 0 mm 1 m/s 686 mmHg 66%
09:00 +22°C° 0 mm 1 m/s 686 mmHg 60%
10:00 +24°C° 0 mm 2 m/s 686 mmHg 54%
11:00 +25°C° 0 mm 2 m/s 686 mmHg 51%
12:00 +26°C° 0 mm 2 m/s 686 mmHg 48%
13:00 +27°C° 0 mm 2 m/s 686 mmHg 43%
14:00 +27°C° 0 mm 2 m/s 686 mmHg 43%
15:00 +27°C° 0 mm 2 m/s 686 mmHg 43%
16:00 +27°C° 0 mm 2 m/s 686 mmHg 43%
17:00 +25°C° 0 mm 2 m/s 686 mmHg 53%
18:00 +24°C° 0 mm 2 m/s 685 mmHg 62%
19:00 +22°C° 0 mm 1 m/s 685 mmHg 72%
20:00 +20°C° 0 mm 1 m/s 685 mmHg 75%
21:00 +18°C° 0 mm 1 m/s 685 mmHg 79%
22:00 +15°C° 0 mm 1 m/s 685 mmHg 83%
23:00 +15°C° 0 mm 1 m/s 684 mmHg 82%

Amanhã, 15 Junho, Terça-feira

Tempo Temperatura Precipitação Vento Pressão Humidade
00:00 +15°C° 0 mm 1 m/s 684 mmHg 82%
01:00 +14°C° 0 mm 1 m/s 684 mmHg 81%
02:00 +14°C° 0 mm 1 m/s 684 mmHg 80%
03:00 +14°C° 0 mm 1 m/s 684 mmHg 79%
04:00 +13°C° 0 mm 1 m/s 684 mmHg 79%
05:00 +15°C° 0 mm 1 m/s 684 mmHg 74%
06:00 +16°C° 0 mm 0 m/s 684 mmHg 69%
07:00 +17°C° 0 mm 0 m/s 685 mmHg 64%
08:00 +19°C° 0 mm 0 m/s 685 mmHg 58%
09:00 +23°C° 0 mm 1 m/s 685 mmHg 51%
10:00 +25°C° 0 mm 1 m/s 685 mmHg 45%
11:00 +25°C° 0 mm 1 m/s 685 mmHg 43%
12:00 +26°C° 0 mm 2 m/s 685 mmHg 40%
13:00 +27°C° 0 mm 2 m/s 686 mmHg 38%
14:00 +27°C° 0 mm 2 m/s 685 mmHg 39%
15:00 +27°C° 0 mm 2 m/s 685 mmHg 40%
16:00 +27°C° 0 mm 2 m/s 685 mmHg 41%
17:00 +25°C° 0 mm 2 m/s 685 mmHg 52%
18:00 +24°C° 0 mm 1 m/s 685 mmHg 62%
19:00 +22°C° 0 mm 1 m/s 685 mmHg 72%
20:00 +21°C° 0 mm 1 m/s 684 mmHg 75%
21:00 +19°C° 0 mm 1 m/s 684 mmHg 78%
22:00 +16°C° 0 mm 1 m/s 684 mmHg 81%
23:00 +16°C° 0 mm 1 m/s 684 mmHg 80%

Depois de amanhã, 16 Junho, Quarta-feira

Tempo Temperatura Precipitação Vento Pressão Humidade
00:00 +16°C° 0 mm 1 m/s 684 mmHg 79%
01:00 +15°C° 0 mm 1 m/s 683 mmHg 79%
02:00 +15°C° 0 mm 1 m/s 683 mmHg 78%
03:00 +15°C° 0 mm 1 m/s 683 mmHg 78%
04:00 +15°C° 0 mm 1 m/s 683 mmHg 77%
05:00 +16°C° 0 mm 1 m/s 683 mmHg 74%
06:00 +17°C° 0 mm 0 m/s 683 mmHg 70%
07:00 +18°C° 0 mm 0 m/s 683 mmHg 67%
08:00 +20°C° 0 mm 0 m/s 683 mmHg 62%
09:00 +24°C° 0 mm 1 m/s 684 mmHg 57%
10:00 +25°C° 0 mm 1 m/s 684 mmHg 52%
11:00 +26°C° 0 mm 1 m/s 684 mmHg 49%
12:00 +27°C° 0 mm 2 m/s 683 mmHg 46%
13:00 +27°C° 0 mm 2 m/s 683 mmHg 44%
14:00 +27°C° 0.1 mm 2 m/s 683 mmHg 44%
15:00 +27°C° 0.1 mm 2 m/s 683 mmHg 45%
16:00 +27°C° 0.1 mm 1 m/s 683 mmHg 46%
17:00 +26°C° 0.1 mm 1 m/s 683 mmHg 55%
18:00 +24°C° 0.1 mm 1 m/s 682 mmHg 64%
19:00 +23°C° 0.1 mm 1 m/s 682 mmHg 73%
20:00 +22°C° 0 mm 1 m/s 682 mmHg 75%
21:00 +20°C° 0 mm 1 m/s 682 mmHg 77%
22:00 +18°C° 0 mm 2 m/s 682 mmHg 79%
23:00 +18°C° 0 mm 2 m/s 682 mmHg 78%

17 Junho, Quinta-feira

Tempo Temperatura Precipitação Vento Pressão Humidade
00:00 +17°C° 0 mm 2 m/s 682 mmHg 77%
01:00 +17°C° 0 mm 2 m/s 682 mmHg 77%
02:00 +17°C° 0 mm 2 m/s 682 mmHg 77%
03:00 +17°C° 0 mm 2 m/s 682 mmHg 76%
04:00 +18°C° 0 mm 1 m/s 682 mmHg 76%
05:00 +19°C° 0 mm 1 m/s 682 mmHg 75%
06:00 +20°C° 0 mm 1 m/s 682 mmHg 73%
07:00 +21°C° 0 mm 1 m/s 682 mmHg 71%
08:00 +23°C° 0 mm 1 m/s 683 mmHg 65%
09:00 +25°C° 0 mm 1 m/s 683 mmHg 58%
10:00 +26°C° 0 mm 1 m/s 683 mmHg 51%
11:00 +27°C° 0 mm 1 m/s 683 mmHg 48%
12:00 +28°C° 0 mm 1 m/s 682 mmHg 46%
13:00 +29°C° 0 mm 2 m/s 682 mmHg 43%
14:00 +28°C° 0.1 mm 2 m/s 682 mmHg 46%
15:00 +28°C° 0.1 mm 2 m/s 682 mmHg 50%
16:00 +27°C° 0.1 mm 2 m/s 681 mmHg 53%
17:00 +26°C° 0.3 mm 2 m/s 681 mmHg 61%
18:00 +24°C° 0.3 mm 2 m/s 681 mmHg 70%
19:00 +23°C° 0.3 mm 1 m/s 681 mmHg 78%
20:00 +21°C° 1.9 mm 1 m/s 681 mmHg 84%
21:00 +19°C° 1.9 mm 1 m/s 682 mmHg 90%
22:00 +18°C° 1.9 mm 1 m/s 683 mmHg 97%
23:00 +18°C° 1.4 mm 1 m/s 683 mmHg 97%

18 Junho, Sexta-feira

Tempo Temperatura Precipitação Vento Pressão Humidade
00:00 +17°C° 1.4 mm 2 m/s 682 mmHg 96%
01:00 +17°C° 1.4 mm 2 m/s 682 mmHg 96%
02:00 +16°C° 0.1 mm 2 m/s 682 mmHg 95%
03:00 +15°C° 0.1 mm 2 m/s 681 mmHg 94%
04:00 +15°C° 0.1 mm 2 m/s 681 mmHg 93%
05:00 +16°C° 0 mm 1 m/s 682 mmHg 91%
06:00 +18°C° 0 mm 1 m/s 682 mmHg 89%
07:00 +19°C° 0 mm 1 m/s 682 mmHg 87%
08:00 +21°C° 0 mm 1 m/s 683 mmHg 79%
09:00 +22°C° 0 mm 1 m/s 683 mmHg 71%
10:00 +24°C° 0 mm 1 m/s 683 mmHg 63%
11:00 +24°C° 0.2 mm 2 m/s 683 mmHg 61%
12:00 +25°C° 0.2 mm 2 m/s 684 mmHg 59%
13:00 +26°C° 0.2 mm 2 m/s 684 mmHg 57%
14:00 +25°C° 0.6 mm 1 m/s 684 mmHg 63%
15:00 +25°C° 0.6 mm 1 m/s 684 mmHg 68%
16:00 +24°C° 0.6 mm 1 m/s 684 mmHg 74%
17:00 +23°C° 0.5 mm 1 m/s 684 mmHg 78%
18:00 +21°C° 0.5 mm 0 m/s 684 mmHg 83%
19:00 +20°C° 0.5 mm 0 m/s 684 mmHg 87%
20:00 +19°C° 0.8 mm 0 m/s 684 mmHg 89%
21:00 +19°C° 0.8 mm 1 m/s 684 mmHg 91%
22:00 +18°C° 0.8 mm 1 m/s 685 mmHg 93%
23:00 +16°C° 0 mm 1 m/s 684 mmHg 93%

19 Junho, Sábado

Tempo Temperatura Precipitação Vento Pressão Humidade
00:00 +16°C° 0 mm 1 m/s 684 mmHg 93%
01:00 +16°C° 0 mm 1 m/s 684 mmHg 92%
02:00 +16°C° 0 mm 1 m/s 684 mmHg 92%
03:00 +16°C° 0 mm 1 m/s 684 mmHg 91%
04:00 +16°C° 0 mm 1 m/s 684 mmHg 91%
05:00 +18°C° 0 mm 1 m/s 684 mmHg 89%
06:00 +19°C° 0 mm 1 m/s 685 mmHg 87%
07:00 +20°C° 0 mm 1 m/s 685 mmHg 85%
08:00 +22°C° 0 mm 1 m/s 685 mmHg 75%
09:00 +24°C° 0 mm 1 m/s 685 mmHg 65%
10:00 +26°C° 0 mm 1 m/s 685 mmHg 55%
11:00 +27°C° 0 mm 1 m/s 685 mmHg 51%
12:00 +28°C° 0 mm 1 m/s 685 mmHg 47%
13:00 +29°C° 0 mm 1 m/s 685 mmHg 43%
14:00 +29°C° 0 mm 1 m/s 684 mmHg 45%
15:00 +29°C° 0 mm 2 m/s 684 mmHg 47%
16:00 +29°C° 0 mm 2 m/s 684 mmHg 48%
17:00 +28°C° 0 mm 2 m/s 683 mmHg 57%
18:00 +27°C° 0 mm 2 m/s 683 mmHg 65%
19:00 +25°C° 0 mm 2 m/s 682 mmHg 73%
20:00 +24°C° 0 mm 2 m/s 682 mmHg 75%
21:00 +21°C° 0 mm 3 m/s 682 mmHg 78%
22:00 +19°C° 0 mm 3 m/s 682 mmHg 80%
23:00 +19°C° 0 mm 3 m/s 682 mmHg 78%
Mostrar mais